Location: Stara Lesna
(49.1528°N, 20.2911°E)
Time: 10:13:07
(UTC+02:00)

Cosmos 1818 - Pass Details

Date: 13 July 2020
Orbit: 777 x 796 km, 65.0° (Epoch: 05 August)

Event Time Altitude Azimuth Distance (km) Brightness Sun altitude
Rises 03:48:10 0° 320° (NW) 3,309 6.9 -8.2°
Reaches altitude 10° 03:50:36 10° 320° (NW) 2,376 6.1 -7.9°
Maximum altitude 03:56:05 83° 233° (SW) 808 3.6 -7.3°
Drops below altitude 10° 04:01:31 10° 146° (SSE) 2,358 5.9 -6.7°
Sets 04:03:55 0° 146° (SE) 3,282 6.7 -6.4°
